Location: Bratislava
(48.1500°N, 17.1170°E)
Time: 20:32:44
(UTC+01:00)

N. Korean satellite - Pass Details

Date: 01 February 2019
Orbit: 457 x 510 km, 97.2° (Epoch: 17 February)

Event Time Altitude Azimuth Distance (km) Brightness Sun altitude
Rises 05:35:49 0° 21° (NNE) 2,593 10.4 -17.5°
Reaches altitude 10° 05:38:05 10° 31° (NNE) 1,695 9.6 -17.2°
Maximum altitude 05:41:23 31° 96° (E) 869 8.6 -16.6°
Drops below altitude 10° 05:44:35 10° 161° (SSE) 1,653 9.6 -16.1°
Sets 05:46:46 0° 171° (S) 2,516 10.4 -15.7°
